Dewpoint
70 71 71 71 72 72 71 71 72 68 68 70 70 73 75 76 74 73 75 75 75 77 74 73 72 72 70 70 70 72 73 74 73 72 73 72 73 73 71 73 73 73 74 74 73 73 73 72 73 73 74 72 71 70 70 70 70 70 70 70 68 67 68 69 68 68 67 67 68 69 69 70 72 72 71 71 70 71 71 71 72 71 71 70 72
69 70 70 71 71 71 71 73 73 67 68 69 71 73 74 75 76 76 75 74 73 74 72 71 71 71 69 69 70 70 71 72 72 72 72 73 73 73 72 71 72 71 73 74 74 73 73 72 72 72 73 73 72 71 71 71 70 70 70 69 69 68 67 68 69 69 67 65 63 64 65 67 69 70 70 71 70 70 70 71 71 71 71 71 71
68 69 70 71 71 71 71 71 72 70 67 68 69 72 74 74 75 76 74 73 72 72 71 71 69 70 69 69 69 71 74 74 72 72 72 72 72 73 73 74 74 72 72 74 74 72 73 73 72 72 71 73 73 72 71 71 70 70 70 69 68 69 68 69 69 69 66 67 66 65 63 63 65 68 70 70 70 70 70 70 70 70 71 71 71
65 67 68 68 67 67 67 68 71 72 70 68 70 70 71 74 76 75 74 72 74 71 72 72 72 72 71 70 70 71 71 73 73 73 72 72 72 72 73 74 74 72 73 72 73 73 72 72 73 73 72 72 72 73 73 71 71 70 70 70 69 68 68 68 69 70 68 67 64 64 63 63 61 62 65 67 70 70 69 69 69 70 70 70 71
64 64 64 64 64 64 65 66 65 67 70 71 69 71 72 73 76 76 75 73 74 75 74 75 74 73 72 73 74 72 71 70 71 73 71 71 72 72 73 72 72 71 72 72 72 72 73 72 72 73 73 73 72 72 73 73 72 71 71 70 69 68 68 68 69 70 68 67 65 65 63 62 62 62 66 65 68 69 69 69 69 69 69 70 70
63 63 63 64 65 64 62 62 63 65 65 66 70 72 74 75 75 74 73 73 73 73 73 73 72 72 72 72 72 72 70 69 67 66 69 70 71 72 73 72 71 71 70 72 72 72 72 72 72 72 72 72 72 72 71 73 73 72 71 70 70 69 68 68 68 70 69 68 66 65 65 62 62 63 63 60 66 68 68 69 69 69 69 69 70
62 62 63 64 64 62 61 61 62 63 63 66 66 67 71 73 74 73 72 73 73 73 72 72 70 69 69 70 71 71 71 71 70 69 68 69 71 72 72 71 70 71 70 71 70 71 71 71 71 71 71 71 72 71 71 71 73 73 72 71 70 70 69 67 67 68 70 69 68 67 68 68 67 65 63 63 61 65 68 68 69 69 69 69 69
59 59 60 61 60 61 61 61 63 62 62 65 66 67 67 69 72 72 72 73 73 73 73 72 70 69 69 69 71 70 71 71 67 67 68 69 70 71 72 72 72 72 71 70 71 71 72 71 71 71 71 70 70 70 71 71 72 72 72 71 71 71 70 68 67 68 67 68 69 68 68 68 68 68 66 65 63 62 64 67 69 69 69 69 69
60 60 60 60 60 61 62 61 63 64 64 64 65 65 66 67 68 67 69 71 71 72 73 72 72 70 70 70 70 71 72 69 68 68 68 69 68 68 69 70 69 70 70 69 70 71 73 72 71 71 71 70 71 70 70 71 72 71 69 69 69 69 70 69 67 67 68 67 68 68 68 68 68 68 67 66 64 62 63 64 66 67 68 69 70
60 60 60 61 61 61 62 62 63 64 65 67 67 67 67 67 68 69 68 68 69 70 70 69 69 71 71 71 70 70 71 67 66 66 66 67 67 66 67 68 68 69 69 70 69 68 69 72 72 71 70 70 72 71 72 72 72 71 70 69 69 68 68 68 67 67 68 67 67 66 67 67 67 67 67 65 64 64 62 62 64 65 65 66 68
60 60 60 60 62 62 63 63 62 63 65 66 65 65 65 65 65 65 66 67 68 70 70 68 67 68 69 69 69 70 70 66 65 65 66 65 65 66 66 67 67 67 68 70 70 70 70 70 70 71 71 71 71 71 70 71 72 72 71 69 68 68 67 67 66 67 67 67 67 67 66 67 66 65 65 66 65 64 63 63 64 65 65 65 66
58 59 60 59 60 61 61 61 62 63 63 64 65 65 65 65 65 65 65 66 67 68 69 69 69 69 69 68 68 68 68 65 64 64 65 65 65 65 67 66 65 66 67 67 66 64 64 65 67 68 69 69 70 71 71 71 71 71 70 69 68 67 67 67 67 67 67 67 67 67 67 67 66 66 66 66 67 65 65 64 65 64 65 66 66
57 59 59 59 59 59 59 59 62 63 63 63 64 64 64 64 65 65 65 66 66 67 68 69 69 69 69 68 68 68 68 66 65 64 65 66 66 65 65 66 65 65 64 65 66 65 66 66 66 67 67 67 68 69 70 70 71 70 68 67 67 67 66 66 66 66 66 66 66 67 68 67 67 67 67 66 67 67 66 65 65 66 65 65 67
57 58 58 59 60 59 58 60 62 62 62 63 64 65 64 64 64 65 64 64 65 67 68 67 68 69 68 68 67 67 66 66 65 65 66 65 66 66 66 64 65 66 66 66 66 67 68 68 69 68 68 68 69 68 68 68 69 69 69 68 67 66 66 66 66 66 66 66 66 66 67 66 66 67 68 67 67 67 67 66 65 66 66 66 65
57 58 58 59 59 58 58 61 62 62 62 63 63 63 63 64 64 62 62 63 65 67 67 67 67 67 67 67 67 68 68 67 67 66 65 65 66 65 65 65 64 65 67 66 68 68 67 67 68 67 67 68 68 68 68 68 69 69 68 69 69 68 67 66 65 65 65 65 65 66 66 67 66 67 68 68 68 67 67 67 66 65 65 66 66
58 57 58 59 59 59 59 59 61 61 62 62 62 63 63 63 63 62 62 63 65 68 68 67 67 68 67 67 65 68 67 67 66 67 66 66 66 66 66 65 65 66 67 68 68 67 67 68 68 66 66 67 68 68 67 68 68 68 69 68 68 69 66 65 66 66 65 65 65 66 66 66 67 67 68 68 68 68 68 68 67 67 63 63 66
57 57 57 58 59 59 60 59 61 62 62 61 62 63 62 61 62 62 62 63 64 66 67 67 67 66 66 67 66 66 66 64 65 66 67 67 66 66 66 67 67 67 68 69 68 67 67 67 67 67 67 67 67 69 67 65 65 68 68 68 68 69 69 67 67 66 66 66 66 65 65 66 66 67 67 68 68 69 69 69 68 67 66 64 63
55 56 55 57 57 60 58 60 61 60 61 61 62 62 61 61 61 61 61 61 62 62 65 67 67 66 66 66 66 65 66 66 65 65 66 66 66 67 67 67 67 67 68 68 68 68 68 68 68 67 67 67 67 67 67 67 67 67 68 68 69 68 66 66 67 67 66 66 66 65 65 65 66 67 67 67 68 68 69 69 69 69 68 65 64
56 56 56 56 56 59 57 58 60 61 63 62 61 61 60 60 62 60 60 61 61 62 64 66 66 66 67 67 66 66 66 66 66 66 65 65 65 65 66 66 67 68 68 67 67 68 68 67 65 66 67 67 67 67 67 67 66 66 65 68 68 69 68 68 67 67 66 66 65 65 65 65 66 66 66 66 66 67 68 69 69 70 70 67 64
53 54 55 55 55 56 56 58 59 60 61 61 61 61 60 60 60 60 61 60 60 61 64 64 65 65 66 66 65 65 66 65 66 65 65 64 64 65 65 65 66 67 67 66 67 66 66 66 67 67 67 67 67 67 67 68 68 67 67 68 69 69 69 68 67 67 66 66 65 65 65 65 66 66 66 65 65 66 67 68 69 69 69 69 68
54 55 55 54 53 55 58 59 61 62 64 62 62 61 60 61 60 60 59 59 59 61 63 63 64 64 64 63 64 64 64 64 64 64 64 64 64 65 65 65 65 65 66 66 66 65 66 66 66 67 67 67 67 66 66 67 67 67 67 67 68 67 67 67 68 66 66 66 66 65 65 65 66 65 65 65 64 65 66 67 68 69 69 67 66
54 54 52 54 56 58 59 62 62 62 62 63 62 61 61 60 59 59 59 58 58 62 63 63 63 63 63 63 63 63 63 63 64 63 64 64 64 64 65 65 65 65 65 65 65 66 66 66 66 66 67 67 66 66 66 67 66 66 66 66 66 66 66 66 68 67 66 66 66 65 65 65 66 65 65 64 64 65 65 66 67 68 68 68 68
53 52 53 56 58 59 60 61 62 62 62 62 62 61 61 60 60 59 59 57 59 62 63 63 63 62 62 62 62 62 62 63 62 62 62 63 64 64 65 65 64 64 65 66 66 67 66 66 65 65 65 65 66 66 67 66 66 66 65 65 66 65 65 65 65 65 66 67 67 67 66 66 66 66 65 64 65 65 65 66 66 67 67 67 67
54 54 55 57 59 60 61 61 61 61 61 62 61 61 61 61 61 59 58 57 61 62 63 63 62 61 61 61 61 62 62 62 62 62 62 62 63 64 66 65 65 65 65 66 66 66 66 65 65 66 66 65 65 66 66 66 66 65 65 65 65 64 64 65 66 66 67 67 67 67 67 66 66 66 65 66 65 65 65 66 65 66 67 67 68
55 57 57 58 60 59 59 59 60 61 61 61 61 61 61 61 61 60 59 58 61 62 62 62 61 61 60 60 61 61 61 61 61 62 62 63 63 64 65 65 65 65 65 66 66 66 65 65 65 65 65 65 65 65 65 65 65 66 67 66 66 66 66 65 65 65 65 66 67 67 67 67 67 66 65 65 66 65 65 66 65 66 66 66 67
55 57 58 58 58 59 58 60 60 61 60 61 61 61 61 61 61 61 59 60 61 62 63 61 61 60 60 60 61 61 61 61 62 62 62 63 64 64 65 66 66 66 66 66 66 66 66 65 66 66 65 65 65 65 65 65 65 66 66 66 66 66 66 66 66 66 65 65 66 66 67 66 66 66 66 66 66 65 65 65 65 65 66 66 66
55 56 57 58 58 58 59 60 60 60 61 61 61 61 61 61 61 61 60 60 61 62 61 60 61 60 60 60 60 61 61 62 62 62 62 63 63 65 66 66 67 67 66 66 66 66 66 65 66 66 66 65 65 65 65 65 66 66 66 65 65 66 66 66 66 66 66 66 66 66 66 66 66 65 65 66 66 66 65 65 65 65 65 65 65
56 57 57 57 57 58 58 59 60 61 61 61 61 61 61 61 60 61 60 61 63 61 59 60 60 60 60 60 61 61 62 62 62 63 62 62 63 64 65 66 67 67 67 66 65 65 65 65 65 66 66 66 65 65 65 65 66 66 67 66 67 66 66 66 67 67 67 66 66 66 67 67 67 67 66 66 66 66 66 65 66 66 65 65 65
56 55 56 57 57 57 58 59 60 60 60 60 60 60 60 60 60 59 59 58 62 60 59 59 60 60 60 61 61 62 63 63 62 62 62 62 62 63 64 65 66 66 67 66 66 65 64 64 64 65 65 66 66 66 66 66 65 65 65 66 66 66 66 66 66 67 67 67 67 67 67 67 68 69 65 65 64 63 66 65 66 66 65 65 65
54 55 55 56 57 58 58 59 59 59 59 59 59 59 59 59 58 58 57 58 61 60 58 59 60 60 61 61 62 63 63 62 61 61 61 61 62 62 63 64 65 66 66 66 65 65 64 64 64 64 65 65 66 66 64 59 60 62 63 64 65 66 66 66 66 67 67 67 67 67 68 68 68 66 65 63 62 62 62 65 66 66 66 65 65
54 54 54 55 57 58 58 58 58 59 58 58 57 58 58 59 59 58 58 58 58 58 58 59 59 60 61 62 62 62 62 61 60 61 61 61 61 62 63 63 64 64 65 65 65 64 64 64 64 64 64 64 65 65 60 59 61 61 61 62 64 66 66 66 67 66 67 67 67 67 68 68 68 67 66 63 62 61 62 62 62 62 63 66 65
54 54 54 55 57 57 57 57 58 58 58 57 58 58 58 57 57 57 58 59 58 58 58 59 59 60 61 61 62 61 61 60 60 60 60 61 62 62 62 62 62 63 64 65 64 64 64 64 64 63 63 64 65 62 58 58 60 60 61 62 64 65 66 66 67 67 67 67 67 67 67 67 67 67 67 65 64 62 62 62 61 61 62 63 63
52 53 55 56 56 56 57 57 58 58 58 58 58 58 57 57 57 57 59 59 59 59 59 59 59 59 60 61 62 62 61 61 60 60 60 61 61 62 61 61 61 62 64 63 63 63 63 63 63 63 64 64 64 60 57 58 59 59 60 62 64 66 66 66 66 67 67 67 66 65 66 66 66 63 68 66 65 65 62 62 62 62 62 62 63
52 53 54 55 56 57 58 58 58 59 59 59 60 57 57 58 58 59 58 58 57 58 58 59 59 59 59 60 61 61 61 61 61 60 60 60 61 61 61 61 62 63 62 62 63 62 63 62 63 63 64 64 64 58 57 57 57 57 59 62 66 67 67 66 65 65 66 67 66 65 65 65 65 66 66 65 64 65 65 64 64 65 65 64 62
53 54 55 55 55 56 57 58 59 59 60 59 58 60 60 59 59 58 58 57 57 56 57 58 58 59 58 58 58 58 59 60 61 61 61 61 61 61 60 60 61 61 61 62 63 62 63 63 63 64 64 64 64 57 56 56 55 56 58 63 66 67 66 65 65 66 65 66 65 65 65 65 65 65 65 65 65 65 65 65 65 65 66 66 66
54 54 54 55 55 56 57 57 60 62 60 58 58 59 58 57 56 56 56 57 56 56 56 57 58 58 57 58 57 58 59 60 61 61 61 61 61 60 60 60 62 62 63 63 63 62 63 62 62 64 64 63 63 58 55 55 55 56 59 65 66 66 66 65 65 65 66 65 65 65 65 66 66 65 64 63 64 66 65 65 65 66 66 67 67
53 53 54 56 56 56 57 60 59 58 59 59 58 59 58 57 55 56 56 55 54 55 56 56 59 57 57 57 57 58 59 60 61 61 61 61 60 60 60 61 60 61 62 63 63 62 63 62 62 63 63 63 62 59 55 54 54 55 60 65 65 65 66 65 65 66 66 66 66 66 65 65 64 64 62 61 62 63 66 65 65 66 67 67 67
53 55 55 57 57 57 58 59 57 58 59 59 60 59 58 57 57 56 56 55 55 55 55 58 57 56 56 56 57 58 58 59 60 61 61 61 61 60 60 60 60 60 61 63 63 62 63 62 62 62 63 63 63 60 54 53 54 55 59 64 64 63 63 62 62 63 64 65 66 66 66 65 64 63 59 59 61 64 66 66 66 66 66 66 66
53 54 55 57 57 57 59 61 58 58 58 60 59 58 56 56 58 57 57 56 55 56 57 57 56 55 56 57 58 58 58 58 60 61 62 61 61 60 60 60 59 59 61 62 63 62 62 62 62 63 64 63 64 61 55 53 54 54 60 63 63 62 61 61 61 61 61 60 59 59 60 58 57 55 54 57 60 64 66 66 66 65 65 65 65
54 54 56 56 58 61 58 57 58 58 59 60 60 59 59 58 58 58 57 56 56 57 57 57 57 57 58 59 58 58 59 59 60 61 62 61 62 60 58 58 57 58 59 61 62 62 62 62 63 63 63 63 64 63 61 52 52 54 56 62 63 62 61 60 61 60 59 59 59 58 56 52 52 51 51 51 52 57 64 65 66 65 62 59 57
53 54 62 57 56 55 54 55 56 58 60 59 58 57 59 62 62 59 59 59 58 58 58 58 58 58 58 57 58 58 59 60 61 61 62 62 60 58 58 58 58 58 58 60 61 61 62 62 63 63 63 63 65 63 63 53 52 53 55 58 62 62 62 60 59 59 58 58 57 57 56 54 51 50 49 49 50 52 55 58 58 58 58 59 58
58 61 58 55 56 57 57 58 58 59 59 58 58 57 58 58 59 58 58 58 59 59 59 57 57 57 58 58 58 59 61 62 62 62 61 60 58 58 58 59 59 58 58 56 58 61 62 61 62 63 63 62 64 64 62 59 52 51 52 54 61 63 63 60 58 57 58 57 57 57 56 53 50 50 49 48 49 51 53 58 54 50 52 57 61
57 57 61 55 55 56 56 56 58 59 59 58 57 57 58 59 58 58 59 60 60 60 59 57 57 58 58 59 58 58 59 61 62 62 60 59 58 58 58 60 59 58 58 55 56 57 57 58 61 61 63 62 63 63 60 61 55 51 50 52 53 58 59 61 58 57 57 58 58 57 56 53 49 47 47 48 50 51 52 51 48 51 54 58 60
52 52 56 59 54 54 54 53 55 57 57 58 59 58 59 60 58 58 58 59 59 60 59 58 59 58 57 56 57 59 56 56 58 59 59 58 58 59 59 58 58 58 56 55 54 54 53 54 58 60 61 62 63 62 62 60 59 53 50 49 51 52 56 61 61 60 60 59 57 55 53 49 47 47 48 49 49 51 53 47 48 53 58 60 62
48 51 57 56 53 54 55 54 55 56 57 58 59 58 60 60 59 59 60 59 60 59 59 58 57 55 55 56 56 56 56 55 55 56 57 57 58 58 56 56 58 57 56 55 53 54 52 53 56 59 60 60 62 62 61 61 61 59 54 51 52 54 54 57 62 62 60 57 52 47 47 48 49 50 52 55 54 52 50 50 51 54 60 61 62
49 53 58 54 55 55 55 55 56 57 57 59 59 58 57 58 58 58 58 58 59 59 58 57 56 55 54 55 55 56 55 55 56 56 57 57 57 56 55 55 56 55 55 56 55 54 53 53 55 58 59 60 61 60 60 61 63 61 59 55 55 56 58 58 58 58 54 51 49 50 51 52 53 55 59 60 60 58 54 55 56 58 57 59 60
51 54 58 54 55 55 55 55 55 56 59 59 58 58 58 58 59 59 57 58 59 59 59 57 54 53 53 55 57 56 56 55 54 53 52 53 54 54 53 53 52 52 54 55 54 54 53 53 54 56 58 59 60 60 60 61 61 62 62 60 60 60 60 60 60 59 57 57 56 56 56 55 55 54 56 57 57 58 59 57 57 57 58 59 60
53 55 57 54 54 53 54 55 56 56 58 59 58 58 58 57 57 56 55 56 60 59 56 54 52 54 55 56 56 61 56 52 51 52 51 52 53 54 52 52 51 53 54 53 52 53 52 52 52 55 57 58 59 59 58 57 57 57 59 62 63 63 62 62 61 59 58 58 57 55 56 59 59 58 58 57 58 58 59 59 58 58 58 59 60
57 57 57 54 54 54 55 56 55 56 57 57 57 58 57 55 54 54 54 56 57 60 56 52 53 54 53 57 52 56 55 52 51 53 53 53 53 54 53 53 53 56 54 53 53 52 54 52 54 55 56 57 58 57 56 52 55 48 50 55 58 59 60 62 60 57 61 58 57 58 58 57 57 57 58 58 58 59 59 59 59 59 58 58 58
57 57 56 55 57 55 56 56 55 55 56 56 56 56 55 56 54 55 56 52 57 56 56 53 53 50 51 56 53 53 54 53 53 53 53 53 60 52 51 53 52 55 52 47 48 52 53 54 55 55 56 56 54 55 48 43 42 42 43 41 40 40 41 48 51 54 58 58 57 57 57 57 57 57 58 58 58 58 58 59 60 58 59 59 58
57 56 56 56 56 58 57 56 55 56 57 58 58 57 57 58 57 56 56 54 57 56 55 52 53 51 54 56 54 53 54 54 54 53 52 54 54 53 48 48 51 52 49 44 43 41 42 45 53 53 53 48 46 43 42 41 41 41 40 40 40 40 41 42 45 56 58 58 57 57 58 58 58 59 59 58 58 57 57 58 59 59 59 59 58